Regional Weather Roundup
Issued by NWS

Home | Current Version | Previous Version | Text Only | Print | Product List | Glossary Off
Versions: 1 2 3 4 5 6 7 8 9 10 11 12 13 14 15 16 17 18 19 20 21 22 23 24 25 26 27 28 29 30 31 32 33 34 35 36 37 38 39 40 41 42 43 44 45 46 47 48 49 50

000
ASUS45 KCYS 021610
RWRWY

WYOMING REGIONAL WEATHER ROUNDUP
NATIONAL WEATHER SERVICE CHEYENNE WY
1000 AM MDT SAT MAY 02 2015

NOTE:  "FAIR" INDICATES FEW OR NO CLOUDS BELOW 12,000 FEET
WITH NO SIGNIFICANT WEATHER AND/OR OBSTRUCTIONS TO VISIBILITY.

WYZ001-021700-
YELLOWSTONE NATIONAL PARK

CITY           SKY/WX    TMP DP  RH WIND       PRES   REMARKS
LK YELLOWSTONE   N/A     52  15  23 VRB7      30.04F
W YELLOWSTONE  NOT AVBL

$$
WYZ002>013-054>058-071-098>099-021700-
NORTHERN WYOMING

CITY           SKY/WX    TMP DP  RH WIND       PRES   REMARKS
JACKSON        SUNNY     50  28  43 CALM      30.02S
CODY           FAIR      64  23  20 SW8       29.89S
GREYBULL       FAIR      55  28  35 CALM      29.86S
WORLAND        FAIR      62  36  37 N3        29.85S
SHERIDAN       FAIR      63  34  33 CALM      29.84S
BUFFALO        FAIR      67  26  21 N10       29.87R
GILLETTE       FAIR      71  30  21 W12       29.83R
HULETT         FAIR      68  41  37 SW10      29.83S
NEWCASTLE      FAIR      63  43  48 S5        29.86S

$$
WYZ014>020-022>026-101>103-021700-
CENTRAL WYOMING

CITY           SKY/WX    TMP DP  RH WIND       PRES   REMARKS
BIG PINEY      FAIR      54  26  34 CALM      30.07F
PINEDALE       FAIR      54  25  32 CALM      30.07F
DUBOIS         FAIR      57  19  23 W17G24    30.00S
LANDER         FAIR      67  29  24 N8        29.92F
RIVERTON       FAIR      61  26  26 VRB5      29.95S
CASPER         FAIR      66  29  24 SW18G25   29.92F
DOUGLAS        FAIR      64  35  34 CALM      29.91F

$$
WYZ021-027>030-104>119-021700-
SOUTHERN WYOMING

CITY           SKY/WX    TMP DP  RH WIND       PRES   REMARKS
EVANSTON       PTSUNNY   61  35  37 SW14      30.08S
KEMMERER       PTSUNNY   59  32  36 SW6       30.09S
FORT BRIDGER   PTSUNNY   63  32  31 W15       30.11S
ROCK SPRINGS   FAIR      60  31  33 W7        30.06F
DIXON          FAIR      61  37  41 CALM      30.10F
RAWLINS        FAIR      63  32  31 W15G25    30.05F
SARATOGA       FAIR      63  32  31 W17       30.07F
LARAMIE        PTSUNNY   58  33  39 W17G25    30.07F
CHEYENNE       FAIR      66  34  30 W16G22    30.01S
TORRINGTON     FAIR      66  46  48 W12       29.88F
PINE BLUFFS    FAIR      68  34  28 NW14      29.97S

$$



USA.gov is the U.S. government's official web portal to all federal, state and local government web resources and services.